#timestamp,LO_Frequency,Hit,StdDev 
1670029215.2,286046999.8,N
1670029235.0,286047002.8,N
1670029235.9,286047002.8,N
1670029255.8,286047000.1,N
1670029275.6,286046999.7,N
1670029295.4,286047002.0,N
1670029315.3,286047000.0,N
1670029335.1,286046999.9,N
1670029355.9,286047002.6,N
1670029375.7,286047002.6,N
1670029395.5,286047001.4,N
1670029415.4,286047003.6,N
1670029435.2,286047003.9,N
1670029455.0,286047003.8,N
1670029455.9,286047003.8,N
1670029475.8,286047004.1,N
1670029495.6,286047004.2,N
1670029515.5,286047004.0,N
1670029535.3,286047002.2,N
1670029555.1,286047002.2,N
1670029575.9,286047002.2,N
1670029595.7,286047000.1,N
1670029615.5,286047002.5,N
1670029635.4,286047002.5,N
1670029655.2,286047001.7,N
1670029675.1,286046999.8,N
1670029676.0,286046999.8,N
1670029695.8,286047003.7,N
1670029715.6,286047003.5,N
1670029735.5,286047003.5,N
1670029755.3,286047001.4,N
1670029775.2,286047001.7,N
1670029795.0,286047003.8,N
1670029795.9,286047003.8,N
1670029815.7,286047003.9,N
1670029835.6,286047001.8,N
1670029855.4,286047004.2,N
1670029875.3,286047003.7,N
1670029895.1,286047001.4,N
1670029896.0,286047001.4,N
1670029915.8,286047002.0,N
1670029935.7,286047001.5,N
1670029955.5,286047002.1,N
1670029975.3,286047001.9,N
1670029995.2,286047001.6,N
1670030015.0,286047003.6,N
1670030015.9,286047003.6,N
1670030035.8,286047001.4,N
1670030055.6,286047004.1,Y
1670030075.4,286047002.4,P
1670030095.3,286047000.2,N
1670030115.1,286047001.2,N
1670030135.9,286046998.2,N
1670030155.7,286046998.1,N
1670030175.5,286047000.3,N
1670030195.4,286047000.2,N
1670030215.2,286046999.7,N
1670030235.0,286047001.9,N
1670030235.9,286047001.9,N
1670030255.8,286047002.7,N
1670030275.6,286047002.8,N
1670030295.5,286046999.8,N
1670030315.3,286047000.4,N
1670030335.1,286047000.5,N
1670030355.9,286047000.7,N
1670030375.7,286047000.6,N
1670030395.5,286047000.0,N
1670030415.4,286047001.2,N
1670030435.2,286047000.9,N
1670030455.1,286046999.0,N
1670030456.0,286046999.0,N
1670030475.8,286046995.4,Y
1670030495.6,286046997.8,P
1670030515.5,286046999.4,N
1670030535.3,286046998.2,N
1670030555.1,286047001.2,N
1670030575.9,286047002.2,N
1670030595.7,286047002.5,N
1670030615.6,286047004.3,N
1670030635.4,286047001.9,N
1670030655.2,286047002.0,N
1670030675.1,286047002.6,N
1670030676.0,286047002.6,N
1670030695.8,286047000.4,N
1670030715.6,286047000.6,N
1670030735.5,286046999.7,N
1670030755.3,286047002.7,N
1670030775.2,286047000.4,N
1670030795.9,286047002.3,N
1670030815.7,286046998.7,N
1670030835.6,286046999.8,N
1670030855.4,286047000.0,N
1670030875.2,286047001.0,N
1670030895.1,286047000.9,N
1670030896.0,286047000.9,N
1670030915.8,286047002.5,N
1670030935.7,286047000.5,N
1670030955.5,286046999.8,N
1670030975.3,286047002.8,N
1670030995.2,286047002.2,N
1670031015.0,286047001.5,N
1670031015.9,286047001.5,N
1670031035.7,286046999.7,N
1670031055.6,286047002.4,N
1670031075.4,286047002.3,N
1670031095.3,286047004.4,Y
1670031115.1,286046999.9,P
1670031135.8,286047000.0,N
1670031155.7,286047001.0,N
1670031175.5,286047000.4,N
1670031195.4,286046998.1,Y
1670031215.2,286046998.8,P
1670031235.0,286047000.9,N
1670031235.9,286047000.9,N
1670031255.8,286047000.5,N
1670031275.6,286047000.3,N
1670031295.4,286047000.3,N
1670031315.3,286047001.1,N
1670031335.1,286046998.4,N
1670031355.9,286046999.2,N
1670031375.7,286046997.1,Y
1670031395.5,286046996.7,P
1670031415.4,286046997.7,N
1670031435.2,286046996.7,N
1670031455.0,286046998.9,N
1670031455.9,286046998.9,N
1670031475.8,286046999.4,N
1670031495.6,286047001.1,N
1670031515.5,286046999.9,N
1670031535.3,286047000.2,N
1670031555.1,286047000.4,N
1670031575.9,286046998.5,N
1670031595.7,286046998.2,N
1670031615.5,286046998.6,N
1670031635.4,286047000.0,N
1670031655.2,286047000.3,N
1670031675.1,286047000.7,N
1670031676.0,286047000.7,N
1670031695.8,286046998.1,N
1670031715.6,286047001.0,N
1670031735.5,286047000.0,N
1670031755.3,286047000.9,N
1670031775.1,286046996.9,N
1670031795.9,286046997.0,N
1670031815.7,286046999.3,N
1670031835.6,286046998.4,N
1670031855.4,286047000.8,N
1670031875.2,286046998.7,N
1670031895.1,286046998.5,N
1670031896.0,286046998.5,N
1670031915.8,286046998.3,N
1670031935.7,286046999.0,N
1670031955.5,286046998.9,N
1670031975.3,286046998.7,N
1670031995.2,286047001.1,N
1670032015.0,286047000.0,N
1670032015.9,286047000.0,N
1670032035.8,286047000.9,N
1670032055.6,286047000.8,N
1670032075.4,286046998.5,N
1670032095.3,286046999.1,N
1670032115.1,286046998.4,N
1670032135.8,286046998.9,N
1670032155.7,286046998.6,N
1670032175.5,286046998.3,N
1670032195.4,286047000.7,N
1670032215.2,286047001.8,N
1670032235.0,286047002.5,N
1670032235.9,286047002.5,N
1670032255.8,286046999.9,N
1670032275.6,286047002.3,N
1670032295.4,286046998.6,N
1670032315.3,286047000.0,N
1670032335.1,286047000.6,N
1670032355.9,286046999.0,N
1670032375.7,286046998.1,N
1670032395.5,286047001.0,N
1670032415.4,286047000.9,N
1670032435.2,286046998.4,N
1670032455.0,286046998.8,N
1670032455.9,286046998.8,N
1670032475.8,286046999.0,N
1670032495.6,286047000.3,N
1670032515.5,286047000.0,N
1670032535.3,286047000.5,N
1670032555.1,286047000.9,N
1670032575.9,286047000.7,N
1670032595.7,286047000.4,N
1670032615.5,286046998.1,N
1670032635.4,286046998.3,N
1670032655.2,286046998.3,N
1670032675.1,286046998.5,N
1670032676.0,286046998.5,N
1670032695.8,286047000.5,N
1670032715.6,286047001.2,N
1670032735.5,286047000.9,N
1670032755.3,286047002.3,N
1670032775.1,286047000.5,N
1670032795.9,286047000.8,N
